[Iaude] MPEC T14: 2013 TG6 [a=0.94,e=0.13,i=3.2,H=26.61]
    mpec at marsden.cfa.harvard.edu 
    mpec at marsden.cfa.harvard.edu
       
    Wed Oct  4 07:57:22 EDT 2023
    
    
  
M.P.E.C. 2023-T14                               Issued 2023 October 4, 11:55 UT
     The Minor Planet Electronic Circulars contain information on unusual
         minor planets, routine data on comets and natural satellites,
         and occasional editorial announcements.  They are published
    on behalf of Division F of the International Astronomical Union by the
          Minor Planet Center, Smithsonian Astrophysical Observatory,
                          Cambridge, MA 02138, U.S.A.
			  
             Prepared using the Tamkin Foundation Computer Network
                              MPC at CFA.HARVARD.EDU
            URL https://www.minorplanetcenter.net/    ISSN 1523-6714
                                    2013 TG6                                    
                           Revision to MPEC 2013-T57                            
Additional Observations:
     K13T06G 1C2023 10 03.26978123 32 29.468-22 11 40.52         18.01GVET014703
     K13T06G 1C2023 10 03.27532723 32 24.281-22 09 34.92         19.12GVET014703
     K13T06G 1C2023 10 03.28641523 32 14.183-22 05 28.57         18.76GVET014703
     K13T06G  C2023 10 03.30406523 31 58.055-21 58 57.76         18.27GVET014I52
     K13T06G  C2023 10 03.30435523 31 57.803-21 58 51.02         18.20GVET014I52
     K13T06G  C2023 10 03.30449023 31 57.644-21 58 48.29         18.32GVET014I52
     K13T06G KC2023 10 03.35528923 31 12.896-21 39 55.40         18.46GVET014I52
     K13T06G KC2023 10 03.35569623 31 12.522-21 39 46.40         18.35GVET014I52
     K13T06G KC2023 10 03.35610323 31 12.191-21 39 37.12         18.41GVET014I52
     K13T06G KC2023 10 03.35651523 31 11.831-21 39 28.04         18.42GVET014I52
     K13T06G  C2023 10 03.73569 23 28 08.95 -19 18 31.4          18.4 GVET014M28
     K13T06G  C2023 10 03.73775 23 28 07.51 -19 17 53.5          18.6 GVET014M28
     K13T06G  C2023 10 03.74010 23 28 05.80 -19 17 09.5          18.6 GVET014M28
     K13T06G hC2023 10 03.87251223 26 27.88 -18 46 55.8          18.5 GVET014L01
     K13T06G hC2023 10 03.87399823 26 26.80 -18 46 27.9          18.3 GVET014L01
     K13T06G hC2023 10 03.87548723 26 25.71 -18 45 59.8          18.5 GVET014L01
     K13T06G hC2023 10 03.87697223 26 24.63 -18 45 32.2          18.5 GVET014L01
     K13T06G hC2023 10 03.87845223 26 23.47 -18 45 04.0          18.5 GVET014L01
     K13T06G KC2023 10 03.88470123 26 18.90 -18 43 09.4          18.5 GXET014595
     K13T06G KC2023 10 03.88919023 26 15.63 -18 41 44.9          18.8 GXET014595
     K13T06G KC2023 10 03.91685123 25 55.36 -18 33 03.1                XET014595
     K13T06G KC2023 10 03.93134523 25 46.02 -18 28 22.5          18.5 GVET014104
     K13T06G 7C2023 10 03.93704123 25 49.045-18 26 00.32         18.6 GXET014Z84
     K13T06G KC2023 10 03.93728423 25 41.71 -18 26 30.5          18.6 GVET014104
     K13T06G 7C2023 10 03.93843723 25 47.983-18 25 34.16         18.6 GXET014Z84
     K13T06G 7C2023 10 03.93981023 25 46.946-18 25 08.59         18.7 GXET014Z84
     K13T06G KC2023 10 03.94052123 25 39.32 -18 25 29.7          18.7 GVET014104
     K13T06G KB2023 10 03.95647523 25 33.41 -18 20 35.7          17.9 GVET014I93
     K13T06G KB2023 10 03.96034423 25 30.56 -18 19 23.5          17.7 GVET014I93
     K13T06G KB2023 10 03.96414923 25 27.79 -18 18 12.7          18.8 GVET014I93
     K13T06G KC2023 10 04.19593023 23 38.94 -17 07 32.0          18.7 GXET014858
     K13T06G KC2023 10 04.20064823 23 35.60 -17 06 10.5          18.7 GXET014858
     K13T06G KC2023 10 04.20517523 23 32.41 -17 04 51.7          18.7 GXET014858
Observer details:
104 San Marcello Pistoiese.  Observers P. Bacci, M. Maestripieri.  Measurers
    P. Bacci, L. Tesi, G. Fagioli.  0.60-m F4 Reflector + CCD.
595 Farra d'Isonzo.  Observer E. Pettarin.  0.61-m f/4.5 reflector + CCD.
703 Catalina Sky Survey.  Observer D. Rankin.  Measurers E. J. Christensen, D.
    Fay, J. B. Fazekas, D. C. Fuls, A. R. Gibbs, A. D. Grauer, H. Groeller, J.
    K. Hogan, R. A. Kowalski, S. M. Larson, G. J. Leonard, D. Rankin, R. L.
    Seaman, A. Serrano, F. C. Shelly, K. W. Wierzchos.  0.68-m Schmidt + 10K
    CCD.
858 Tebbutt Observatory, Edgewood.  Observer F. B. Zoltowski.  0.51-m f/8.1
    Schmidt-Cassegrain + CCD.
I52 Steward Observatory, Mt. Lemmon Station.  Observer D. Rankin.  Measurers
    E. J. Christensen, D. Fay, J. B. Fazekas, D. C. Fuls, A. R. Gibbs, A. D.
    Grauer, H. Groeller, J. K. Hogan, R. A. Kowalski, S. M. Larson, G. J.
    Leonard, D. Rankin, R. L. Seaman, A. Serrano, F. C. Shelly, K. W.
    Wierzchos.  1.0-m prime focus + CCD.
I93 St Pardon de Conques.  Observer F. Losse.  0.40-m f/3.7 reflector + CMO.
L01 Visnjan Observatory, Tican.  Observer K. Korlevic.  1.0-m f/2.9 reflector
    + CCD.
M28 Lesedi Telescope-SAAO Observatory, Sutherland.  Observers N. Erasmus, S.
    Potter, C. van Gend, S. Chandra, H. Worters.  Measurers T. Ngwane, N.
    Erasmus.  1.0-m f/8 Reflector + CCD.
Z84 Calar Alto-Schmidt.  Observers F. Ocana, M. Micheli, R. Kresken, L.
    Conversi.  Measurers F. Ocana, M. Micheli.  0.8-m f/3 Schmidt + CCD.
First and last observations above in comparison with prediction:
Residuals in seconds of arc (or two decimals in degrees), reference and Delta-T
231003 703 3.56+ 1.40+    231004 858 3.08+ 1.31+    E2023-R04   +0.06 days
Orbital elements:
2013 TG6                                                 Earth MOID = 0.0090 AU
Epoch 2023 Sept. 13.0 TT = JDT 2460200.5                Veres                   
M 100.83573              (2000.0)            P               Q                  
n   1.08369759     Peri.  221.41082     -0.57082118     +0.82096523             
a   0.9387083      Node    13.79903     -0.73778068     -0.50568972             
e   0.1264115      Incl.    3.21798     -0.36033714     -0.26513014             
P   0.91           H   26.61          G   0.15           U   0                  
Residuals in seconds of arc
131005 703  0.5-  0.2-    131006 I93  0.1-  0.2+    231003 703  0.5-  0.9+
131005 703  0.1-  0.5+    131006 I93  0.3+  0.1+    231003 703  1.1+  1.0+
131005 703  0.3-  0.4+    131006 I93  0.2+  0.2-    231003 I52  0.1+  0.4-
131005 703  0.0   0.2-    131008 H21  0.1-  0.2+    231003 I52  0.3+  0.1-
131005 474  0.2-  0.0     131008 H21  0.4-  0.0     231003 I52  0.2-  0.4-
131005 474  0.2-  0.3+    131008 H21  0.1-  0.1+    231003 I52  0.4+  0.1-
131005 474  0.1-  0.0     131008 G96  0.2-  0.2+    231003 I52  0.0   0.2-
131005 474  0.1-  0.4-    131008 G96  0.1-  0.0     231003 I52  0.2+  0.0
131005 474  0.2-  0.5-    131008 G96  0.1-  0.2+    231003 I52  0.1+  0.1-
131005 474  0.2+  0.4-    131008 926  0.0   0.2-    231003 M28  2.0-  1.1+
131005 474  0.1+  0.2-    131008 926  0.1+  0.1-    231003 M28  1.4-  0.5+
131005 474  0.2-  0.3+    131008 926  0.1-  0.1-    231003 M28  1.6-  0.5+
131005 474  0.0   0.3-    131010 H21  0.2-  0.3-    231003 L01  0.4-  0.1+
131005 474  0.3-  0.3-    131010 H21  0.1-  0.1-    231003 L01  0.1-  0.0
131005 474  0.1+  0.4+    131010 H21  0.0   0.1+    231003 L01  0.0   0.1+
131006 807  0.2-  0.0     131010 H21  0.1-  0.1-    231003 L01  0.3+  0.2-
131006 807  0.0   0.0     131010 H21  0.3-  0.0     231003 L01  0.6-  0.1+
131006 807  0.3+  0.1-    131010 H21  0.2-  0.0     231003 595  0.9-  0.3-
131006 807  0.2+  0.1+    131011 807  0.1+  0.2+    231003 595  0.3-  0.3-
131006 807  0.1+  0.3+    131011 807  0.3+  0.1+    231003 595  0.4+  0.2+
131006 I36  0.0   0.4+    131011 807  0.5+  0.3-    231003 104  0.1-  0.1-
131006 I36  0.0   0.6+    131011 807  0.1+  0.2-    231003 Z84  0.1+  0.2-
131006 I36  0.6+  0.2+    131011 H21  0.3+  0.3-    231003 104  0.5+  0.0
131006 448  0.2-  0.2+    131011 H21  0.3-  0.0     231003 Z84  0.1-  0.0
131006 448  0.1+  0.3+    131011 H21  0.0   0.1-    231003 Z84  0.1-  0.0
131006 448  0.4-  0.1+    131012 807  0.2-  0.1+    231003 104  0.1+  0.1-
131006 926  0.2+  0.2-    131012 807  0.4-  0.1+    231003 I93  0.6+  0.2+
131006 926  0.1+  0.0     131012 807  0.5-  0.1+    231003 I93  0.0   0.2+
131006 926  0.2+  0.3-    131012 926  0.3+  0.2-    231003 I93  0.1-  0.2-
131006 854  0.9-  0.8-    131012 926  0.2+  0.2+    231004 858  0.0   0.4+
131006 854  0.9-  0.3+    131012 926  0.0   0.1+    231004 858  0.3-  0.1+
131006 854  0.3+  0.6+    231003 703  0.2+  1.7-    231004 858  0.3-  0.3+
Ephemeris:
2013 TG6                 a,e,i = 0.94, 0.13, 3                   q = 0.8200
Date    TT    R. A. (2000) Decl.     Delta      r    Elong.  Phase     V
2023 09 04    10 21 55.7 -20 51 03   0.06113 0.9557    29.1   149.1    28.7
...
2023 09 19    09 53 24.9 -33 56 57   0.02517 0.9869    44.1   134.9    24.8
...
2023 09 27    06 37 25.0 -66 16 18   0.01015 1.0019    86.3    93.2    20.0
...
2023 10 03    23 35 45.7 -23 45 27   0.01324 1.0122   149.2    30.5    18.6
2023 10 04    23 25 12.9 -17 58 49   0.01506 1.0138   151.7    27.9    18.8
2023 10 05    23 17 31.6 -13 27 24   0.01703 1.0154   152.6    26.9    19.0
...
2023 10 11    22 56 29.0 +00 22 36   0.03028 1.0243   147.8    31.3    20.4
...
2023 10 19    22 50 14.3 +06 48 39   0.04962 1.0346   139.7    38.5    21.7
...
2023 11 03    22 56 56.5 +11 21 04   0.08821 1.0489   128.1    48.2    23.2
A. U. Tomatic                (C) Copyright 2023 MPC           M.P.E.C. 2023-T14
    
    
More information about the Iaude
mailing list